Wind_Speed
72 73 65 60 60 63 61 63 63 60 58 55 57 55 51 48 46 44 42 43 44 39 36 30 31 34 36 34 36 38 39 36 36 35 33 29 31 30 32 33 33 30 30 32
77 71 64 65 68 65 64 63 61 58 58 58 53 54 50 46 44 38 36 38 37 35 28 29 31 34 34 31 35 36 34 34 35 35 32 30 29 29 30 33 32 31 32 33
76 69 69 70 70 67 66 65 60 59 57 56 54 57 48 43 42 39 38 35 32 31 28 30 32 29 27 33 34 33 31 32 29 29 27 30 28 25 29 32 29 30 32 32
70 68 71 71 71 68 67 64 61 61 59 57 53 57 48 37 37 37 37 33 30 29 27 28 25 25 30 31 31 30 30 29 25 26 27 25 22 25 30 28 28 29 27 26
59 67 71 72 66 68 64 65 62 63 61 59 55 56 37 36 35 31 28 29 27 28 27 24 26 31 28 28 29 28 26 24 22 20 19 18 22 25 25 26 26 25 24 24
50 52 58 63 65 66 64 66 62 62 63 65 53 54 28 29 31 27 31 34 31 27 22 25 28 26 24 28 25 23 21 21 17 17 15 19 20 23 25 24 23 22 22 24
33 43 51 57 60 60 64 65 64 65 65 56 51 54 28 18 30 26 31 29 19 18 24 22 21 22 26 26 23 21 18 17 16 15 18 20 20 22 22 21 20 21 23 22
20 24 38 46 54 55 61 64 64 66 63 54 49 51 36 26 20 24 22 19 18 23 19 22 21 21 22 22 22 16 14 13 15 17 19 18 18 19 18 18 20 23 20 16
8 15 20 23 40 49 54 58 55 56 59 57 51 45 42 31 26 24 14 16 19 18 19 18 17 17 15 15 13 11 11 13 16 18 16 16 15 15 16 18 22 18 13 12
12 16 16 22 27 44 49 53 54 57 56 57 53 48 43 34 24 19 22 22 19 19 18 15 18 9 9 6 7 9 12 14 15 14 13 12 13 14 16 20 16 11 9 10
16 19 21 22 23 34 45 50 54 55 55 55 52 49 46 36 27 30 24 24 19 19 17 16 13 7 8 9 9 11 13 13 11 11 11 12 13 15 17 13 10 6 7 7
10 16 18 18 30 33 37 48 53 57 57 55 55 53 49 40 32 33 25 19 16 17 15 14 8 7 10 10 11 12 13 9 9 11 10 12 16 15 10 10 5 5 6 4
15 13 17 14 24 34 40 44 53 59 60 59 59 55 43 31 41 32 26 24 21 17 13 10 8 7 10 9 12 11 9 8 10 9 11 13 10 7 11 8 4 4 5 3
17 16 21 17 19 28 40 45 49 60 61 57 54 55 34 40 36 34 33 30 27 15 11 8 8 9 10 9 11 8 9 9 8 9 11 10 10 11 12 8 5 3 3 4
17 17 19 17 20 24 33 47 46 61 64 61 53 56 40 47 38 41 36 34 26 15 7 7 8 9 7 9 10 8 8 8 7 9 10 11 12 11 9 7 5 3 3 6
19 14 18 15 16 24 28 40 52 59 64 62 56 46 51 48 47 42 38 33 26 15 10 9 7 6 8 9 8 7 7 6 7 9 12 13 11 7 5 6 5 4 5 7
16 18 19 11 15 19 21 29 46 54 62 63 60 51 56 54 49 39 39 34 24 16 13 10 10 8 7 7 6 6 6 6 6 8 12 12 7 2 1 2 4 7 7 9
16 17 20 16 13 18 12 22 39 46 57 65 65 52 58 53 48 45 38 33 26 21 17 13 11 9 7 7 7 5 4 4 4 8 11 4 2 4 2 2 4 8 7 7
4 7 8 6 10 10 13 21 37 36 52 63 60 63 60 54 51 46 41 33 32 27 20 15 14 9 8 9 7 4 3 2 3 6 4 2 3 3 5 4 3 7 9 8
4 6 7 11 14 3 15 19 33 29 41 44 54 70 61 56 54 46 36 35 33 28 25 16 14 10 11 10 6 3 4 2 2 2 6 6 4 4 3 3 5 5 10 12
9 6 6 4 6 4 16 22 30 27 36 35 47 67 61 60 53 42 41 35 33 32 24 19 14 13 15 11 6 7 5 3 3 4 4 7 9 4 2 3 2 2 7 11
9 5 2 5 7 3 11 21 31 33 37 45 36 63 64 58 52 46 38 39 47 32 25 20 16 16 18 12 8 9 8 5 4 6 5 5 6 7 3 2 2 4 11 11
12 12 9 7 13 11 1 24 31 36 44 27 37 52 66 59 49 41 48 33 37 30 27 22 17 17 20 14 10 9 9 7 5 5 4 5 6 7 8 10 9 8 8 11
6 5 4 5 7 10 13 33 34 41 41 38 41 50 58 56 44 34 38 49 43 34 30 21 17 18 21 16 12 9 9 8 7 5 5 5 7 9 12 10 8 4 4 10
9 9 5 11 5 9 22 27 35 47 43 40 44 58 53 53 41 40 33 51 45 40 32 25 18 15 19 18 13 11 9 8 9 6 6 7 9 10 12 14 18 15 13 13
9 11 12 17 12 12 24 33 27 31 38 26 43 55 51 48 39 39 37 23 42 36 35 26 21 15 14 17 14 11 9 8 10 8 8 8 12 14 17 17 19 21 19 15
Wind_Direction
242 242 243 247 247 245 246 248 248 248 250 248 254 255 254 256 255 249 251 256 256 257 254 250 253 255 262 262 267 264 265 276 281 288 286 276 283 278 276 278 281 281 289 291
240 241 241 239 240 241 241 244 246 249 250 253 250 254 250 250 254 258 256 252 255 252 247 251 254 257 260 263 262 266 272 281 289 287 282 271 268 270 278 279 278 284 285 290
238 237 235 236 237 237 239 240 242 245 249 251 253 251 249 247 251 252 254 253 244 243 241 245 250 255 257 259 266 271 281 289 291 285 264 264 267 276 275 276 280 286 287 294
232 231 232 234 235 235 235 239 239 242 244 247 251 250 245 246 249 250 253 249 243 246 244 244 248 249 259 262 266 275 281 286 279 273 262 262 271 271 274 278 283 287 295 304
226 228 228 228 231 234 233 234 236 238 240 243 245 253 237 239 244 247 254 249 243 240 238 242 236 241 251 265 275 275 274 271 272 270 269 269 271 275 278 286 291 296 303 303
229 228 225 228 227 228 229 233 233 236 238 238 239 251 238 237 240 236 232 241 244 241 239 232 241 251 257 268 269 261 260 267 268 267 267 277 274 278 287 291 296 300 303 307
234 232 228 223 225 225 225 228 229 232 235 237 236 242 237 238 228 226 231 234 237 233 229 249 255 253 260 266 258 251 256 262 266 265 272 269 276 283 288 294 297 301 304 299
223 232 226 227 226 224 222 226 227 229 233 234 236 234 231 219 218 225 239 232 219 224 248 253 249 265 272 269 259 253 254 258 263 263 266 275 279 286 292 298 298 300 297 291
234 197 203 214 223 222 220 222 224 228 230 229 229 227 226 216 215 237 226 211 215 230 236 248 262 268 277 270 255 240 245 259 259 266 273 281 284 293 302 298 297 295 289 285
219 210 201 213 211 218 218 222 219 222 222 224 224 224 220 213 221 200 213 203 201 216 235 257 257 262 265 240 220 237 251 257 266 271 287 289 298 305 302 300 299 293 284 281
242 240 231 239 227 219 217 215 220 220 220 222 223 220 220 217 208 215 217 212 220 224 240 243 246 249 254 238 239 244 257 260 266 291 292 299 305 304 299 295 296 282 295 274
254 248 242 235 232 224 225 213 214 215 217 217 220 216 222 214 216 206 207 201 212 230 223 234 234 251 253 244 243 252 260 269 287 288 293 300 299 303 292 303 297 295 310 274
266 262 237 224 228 228 228 220 214 211 212 211 216 214 204 215 202 194 185 203 213 207 214 213 236 240 244 241 245 255 276 280 281 293 299 304 304 291 292 295 288 306 304 235
261 251 247 241 241 236 227 223 215 215 207 209 210 216 193 191 196 190 186 191 192 199 202 210 235 242 251 248 252 265 274 274 290 294 304 312 305 300 297 282 267 289 293 205
261 239 254 242 239 245 235 224 212 212 206 205 205 210 177 193 190 186 188 187 185 186 197 223 232 229 245 254 256 268 266 278 291 295 309 311 306 298 288 282 250 232 259 201
254 250 251 251 265 240 235 230 216 212 206 201 203 198 180 184 185 188 188 191 182 166 203 218 213 229 248 249 255 258 266 289 288 296 315 315 307 301 288 280 234 208 221 190
220 233 246 229 238 236 250 233 219 211 206 201 200 175 179 183 185 187 186 181 160 169 200 213 222 234 247 255 251 243 278 283 283 303 314 306 300 312 304 260 223 201 199 184
226 236 256 257 232 236 254 218 213 213 208 206 200 178 186 182 186 179 181 171 158 169 190 212 222 236 242 239 221 251 271 273 290 312 312 319 123 109 76 116 145 177 193 185
240 246 270 281 303 254 210 206 197 209 207 205 199 180 183 186 188 185 184 168 168 177 185 197 223 229 233 205 215 249 239 243 316 320 13 67 134 133 98 89 140 190 189 179
344 294 290 274 289 330 208 203 193 201 212 195 189 186 179 185 189 187 185 182 177 186 188 191 215 227 210 194 204 201 201 149 26 11 55 58 75 153 158 93 67 152 185 190
357 301 333 325 342 63 208 191 193 205 201 188 190 186 185 191 192 186 177 186 187 192 183 179 199 210 194 188 183 174 166 120 98 100 73 55 51 60 159 125 144 111 167 181
15 32 326 77 61 123 217 219 213 205 191 193 183 188 192 196 194 194 204 207 194 188 169 175 197 192 187 178 166 164 141 125 104 97 73 60 52 46 41 100 112 142 154 153
44 74 87 96 78 43 145 192 186 185 185 184 191 192 196 199 196 198 200 180 156 172 178 187 192 188 184 171 160 155 134 128 116 100 72 60 55 45 71 93 91 116 145 152
46 66 65 25 15 39 117 167 182 171 183 193 193 192 195 197 194 195 182 170 160 179 183 185 185 186 181 175 161 143 134 134 123 104 94 99 80 83 91 88 74 54 131 160
42 27 33 40 356 30 108 165 175 182 174 183 193 191 194 189 193 197 190 164 175 181 174 176 179 185 179 180 171 150 135 139 129 122 110 119 107 108 104 91 72 72 89 123
60 52 48 61 58 79 126 154 141 192 195 183 189 195 193 190 194 203 212 204 181 179 173 176 176 169 177 181 186 173 155 144 139 130 121 122 114 119 117 102 87 80 84 90
Height
5665 5669 5686 5702 5703 5702 5709 5710 5712 5721 5728 5734 5735 5742 5751 5752 5753 5758 5763 5766 5768 5772 5774 5777 5776 5776 5775 5775 5775 5773 5771 5768 5766 5765 5765 5764 5764 5764 5763 5762 5761 5759 5756 5753
5645 5660 5679 5679 5678 5686 5693 5697 5704 5711 5715 5719 5728 5727 5736 5742 5746 5752 5755 5758 5761 5762 5767 5767 5768 5769 5769 5769 5767 5765 5763 5760 5758 5757 5758 5757 5757 5756 5757 5756 5755 5752 5750 5747
5627 5650 5654 5656 5661 5671 5678 5683 5695 5701 5705 5709 5715 5713 5727 5735 5739 5743 5745 5748 5752 5755 5758 5758 5760 5761 5761 5760 5758 5757 5754 5753 5751 5749 5749 5750 5750 5751 5751 5750 5748 5744 5742 5739
5608 5628 5632 5637 5647 5655 5664 5674 5685 5688 5693 5700 5706 5702 5715 5730 5733 5735 5737 5743 5746 5749 5750 5751 5752 5753 5753 5753 5750 5748 5747 5745 5744 5743 5742 5744 5745 5745 5745 5743 5741 5737 5734 5731
5604 5607 5611 5619 5633 5640 5657 5659 5671 5675 5682 5689 5697 5695 5717 5724 5725 5732 5735 5735 5738 5739 5741 5743 5744 5744 5745 5745 5743 5741 5739 5739 5738 5738 5739 5740 5739 5739 5738 5735 5732 5731 5728 5726
5588 5588 5594 5610 5616 5625 5639 5646 5658 5663 5669 5671 5693 5693 5707 5715 5722 5724 5725 5723 5726 5731 5734 5735 5737 5738 5738 5737 5735 5734 5734 5735 5735 5735 5735 5735 5735 5733 5731 5729 5727 5725 5723 5720
5573 5579 5590 5595 5603 5612 5624 5632 5643 5649 5651 5672 5687 5687 5699 5709 5711 5715 5715 5718 5724 5727 5729 5731 5732 5732 5730 5729 5728 5728 5729 5730 5731 5731 5731 5731 5730 5728 5727 5724 5722 5720 5718 5716
5572 5577 5580 5588 5594 5605 5614 5621 5630 5638 5649 5666 5677 5679 5690 5704 5706 5708 5711 5716 5720 5723 5726 5726 5726 5725 5723 5722 5723 5724 5726 5727 5727 5727 5727 5726 5725 5724 5722 5720 5718 5716 5713 5711
5571 5573 5575 5581 5585 5595 5603 5608 5627 5629 5641 5654 5667 5676 5685 5696 5704 5706 5710 5712 5716 5718 5719 5719 5719 5719 5718 5718 5719 5721 5722 5723 5723 5723 5723 5722 5721 5720 5718 5716 5714 5711 5709 5708
5569 5570 5572 5575 5580 5586 5595 5604 5610 5617 5631 5646 5658 5668 5674 5690 5699 5700 5705 5708 5711 5712 5713 5714 5715 5715 5715 5715 5717 5718 5719 5719 5719 5719 5718 5717 5716 5715 5714 5711 5709 5707 5706 5704
5565 5568 5572 5573 5576 5581 5586 5592 5600 5612 5625 5639 5652 5661 5670 5683 5694 5692 5700 5704 5706 5708 5709 5710 5711 5711 5712 5713 5714 5714 5715 5716 5715 5714 5714 5713 5712 5711 5709 5707 5705 5704 5703 5701
5561 5562 5565 5569 5571 5574 5574 5582 5589 5602 5619 5632 5641 5652 5663 5675 5683 5684 5692 5700 5703 5705 5705 5706 5706 5707 5709 5710 5711 5711 5712 5712 5711 5711 5710 5710 5709 5707 5705 5703 5702 5702 5700 5699
5558 5560 5563 5565 5566 5566 5569 5576 5584 5593 5604 5618 5629 5640 5656 5666 5668 5677 5688 5693 5697 5700 5702 5702 5703 5705 5706 5708 5708 5709 5709 5709 5708 5708 5707 5706 5705 5704 5702 5700 5700 5699 5699 5698
5556 5557 5558 5560 5559 5558 5563 5566 5576 5583 5595 5610 5625 5633 5656 5660 5664 5674 5680 5685 5690 5695 5697 5698 5701 5703 5704 5705 5706 5706 5706 5706 5706 5706 5705 5704 5702 5700 5698 5698 5698 5698 5697 5697
5552 5553 5553 5553 5553 5553 5555 5558 5565 5571 5587 5601 5618 5625 5647 5654 5661 5668 5674 5680 5685 5689 5693 5696 5699 5701 5702 5703 5704 5704 5704 5704 5704 5703 5702 5701 5699 5697 5695 5695 5696 5696 5696 5696
5548 5549 5549 5549 5547 5546 5546 5550 5557 5566 5580 5595 5609 5624 5637 5646 5655 5661 5670 5675 5679 5685 5690 5694 5697 5699 5700 5701 5701 5702 5702 5702 5702 5701 5700 5698 5696 5694 5693 5693 5693 5694 5695 5694
5544 5544 5543 5545 5544 5541 5541 5544 5552 5563 5575 5588 5600 5619 5629 5637 5648 5658 5666 5671 5675 5682 5687 5693 5695 5697 5697 5698 5699 5700 5701 5701 5700 5699 5698 5696 5694 5693 5692 5692 5691 5692 5693 5693
5541 5541 5540 5541 5540 5538 5539 5539 5548 5559 5569 5577 5589 5615 5623 5630 5643 5653 5660 5666 5671 5678 5683 5691 5693 5695 5696 5697 5698 5699 5699 5699 5699 5698 5697 5694 5693 5693 5693 5692 5691 5691 5692 5693
5541 5539 5538 5537 5536 5537 5536 5537 5544 5553 5564 5572 5587 5607 5613 5626 5637 5647 5654 5663 5669 5674 5680 5686 5691 5693 5695 5695 5697 5698 5698 5699 5698 5697 5695 5694 5694 5693 5692 5691 5691 5691 5691 5692
5540 5539 5537 5536 5534 5534 5537 5538 5545 5554 5559 5570 5588 5596 5609 5620 5632 5643 5652 5660 5666 5671 5676 5683 5689 5691 5694 5694 5696 5697 5698 5698 5698 5697 5696 5694 5694 5693 5692 5691 5691 5690 5690 5691
5540 5538 5537 5537 5536 5536 5537 5540 5547 5552 5564 5571 5581 5596 5606 5615 5630 5641 5649 5658 5665 5670 5674 5680 5685 5689 5692 5693 5694 5696 5696 5697 5698 5697 5697 5695 5694 5693 5692 5692 5691 5690 5690 5690
5540 5538 5537 5538 5538 5540 5539 5542 5545 5553 5561 5567 5580 5592 5599 5614 5628 5640 5646 5652 5660 5669 5673 5679 5683 5687 5691 5692 5693 5695 5695 5696 5697 5697 5697 5697 5695 5694 5693 5692 5691 5690 5690 5691
5541 5540 5539 5540 5540 5538 5536 5534 5543 5550 5559 5570 5580 5589 5600 5613 5628 5637 5641 5645 5652 5665 5671 5678 5681 5686 5689 5691 5692 5693 5694 5696 5697 5698 5698 5697 5696 5695 5694 5693 5693 5692 5692 5692
5543 5542 5542 5542 5541 5537 5536 5542 5549 5555 5566 5569 5579 5588 5600 5614 5626 5632 5637 5640 5650 5663 5671 5677 5681 5685 5687 5690 5691 5692 5694 5696 5698 5698 5699 5699 5699 5698 5697 5696 5695 5694 5692 5692
5547 5545 5544 5543 5541 5540 5541 5547 5554 5557 5564 5567 5580 5589 5598 5613 5624 5632 5637 5638 5649 5659 5664 5673 5679 5683 5686 5689 5691 5692 5694 5696 5698 5700 5700 5701 5700 5700 5700 5700 5698 5696 5695 5695
5549 5548 5545 5544 5546 5548 5549 5554 5561 5562 5569 5570 5582 5590 5601 5614 5623 5629 5632 5638 5649 5656 5663 5671 5676 5682 5685 5688 5690 5692 5694 5697 5698 5700 5701 5703 5702 5703 5703 5704 5703 5702 5700 5699